This is the latest recevied weather packets stored in our database for station/object K4DNM. If no packets are shown the sender has not sent any weather packets the latest 10 day(s).
| Time | Temp. | Humidity | Pressure | Rain* | Wind** | Luminosity | Snow |
|---|---|---|---|---|---|---|---|
| 1777566127 | 17.22° C | 83% | 1009.5 hPa | 0 mm | - | 145 W/m² | - |
| 1777565829 | 17.22° C | 84% | 1009.6 hPa | 0 mm | - | 138 W/m² | - |
| 1777565527 | 17.22° C | 83% | 1009.5 hPa | 0 mm | - | 115 W/m² | - |
| 1777565229 | 17.22° C | 84% | 1009.5 hPa | 0 mm | - | 101 W/m² | - |
| 1777564930 | 17.22° C | 84% | 1009.5 hPa | 0 mm | - | 78 W/m² | - |
| 1777564630 | 17.22° C | 83% | 1009.6 hPa | 0 mm | - | 72 W/m² | - |
| 1777564330 | 17.22° C | 83% | 1009.6 hPa | 0 mm | - | 75 W/m² | - |
| 1777564013 | 17.78° C | 83% | 1009.5 hPa | 0 mm | - | 90 W/m² | - |
| 1777563771 | 17.78° C | 81% | 1009.4 hPa | 0 mm | - | 74 W/m² | - |
| 1777563412 | 17.78° C | 81% | 1009.4 hPa | 0 mm | - | 59 W/m² | - |
| 1777563110 | 17.78° C | 80% | 1009.4 hPa | 0 mm | - | 68 W/m² | - |
| 1777562800 | 17.78° C | 77% | 1009.3 hPa | 0 mm | - | 92 W/m² | - |
| 1777562487 | 17.78° C | 78% | 1009.4 hPa | 0 mm | - | 119 W/m² | - |
| 1777562172 | 17.78° C | 78% | 1009.6 hPa | 0 mm | - | 174 W/m² | - |
| 1777561931 | 17.78° C | 82% | 1009.6 hPa | 0 mm | - | 169 W/m² | - |
| 1777561572 | 17.78° C | 84% | 1009.7 hPa | 0 mm | - | 116 W/m² | - |
| 1777561274 | 17.78° C | 83% | 1009.8 hPa | 0 mm | - | 126 W/m² | - |
| 1777560973 | 17.22° C | 85% | 1009.8 hPa | 0 mm | - | 167 W/m² | - |
| 1777560672 | 17.22° C | 85% | 1009.7 hPa | 0 mm | - | 152 W/m² | - |
| 1777560355 | 17.22° C | 83% | 1009.7 hPa | 0 mm | - | 130 W/m² | - |
| 1777560054 | 17.22° C | 84% | 1009.8 hPa | 0 mm | - | 155 W/m² | - |
| 1777559757 | 17.22° C | 83% | 1009.7 hPa | 0 mm | - | 128 W/m² | - |
| 1777559442 | 17.78° C | 82% | 1009.3 hPa | 0 mm | - | 147 W/m² | - |
| 1777559140 | 17.78° C | 85% | 1009.1 hPa | 0 mm | - | 170 W/m² | - |
| 1777558840 | 17.22° C | 85% | 1008.7 hPa | 0 mm | - | 231 W/m² | - |
* Rain latest hour (hover to see other rain measurements)
** Current wind speed in m/s (hover to see current wind gust speed)